Tracking 29892 objects as of 21-Nov-2024
HD Live streaming from Space Station
objects crossing your sky now

THORAD AGENA D DEB

Track THORAD AGENA D DEB now!
10-day predictions


NORAD ID: 4772
Int'l Code: 1970-025DS
Perigee: 1,030.3 km
Apogee: 1,306.7 km
Inclination: 99.7 °
Period: 108.6 minutes
Semi major axis: 7539 km
RCS: 0.0697 m2 (small)
Launch date: April 8, 1970
Source: United States (US)
Launch site: AIR FORCE WESTERN TEST RANGE (AFWTR)

Note: This is SATELLITE DEBRIS
Your satellite tracking list
Your tracking list is empty




NASA's NSSDC Master Catalog

Two Line Element Set (TLE):
1 04772U 70025DS  24324.97640309  .00000982  00000-0  21204-2 0  9997
2 04772  99.7155 145.0085 0183320 217.0064 299.0287 13.26139601626034
Source of the keplerian elements: AFSPC